User: anonymous   Login
Location: Unspecified
(0.0000°N, 0.0000°E)
Time: 22:36:11
(UTC+00:00)
Language:

STARLINK-5350 - Orbit

View from above orbital plane
View from above orbital plane
View from above satellite
View from above satellite

Ground track
Ground track

The orbit is defined by the following mean orbital elements,

1 56419U          26145.39100441 +.00000000 +00000-0 +14306-3 0 00005
2 56419  43.0018 113.9854 0000853 255.0187 105.0570 15.27573144    05
Epoch (UTC): 25 May 2026 09:23:02
Eccentricity: 0.0000853
inclination: 43.0018°
perigee height: 482 km
apogee height: 484 km
right ascension of ascending node: 113.9854°
argument of perigee: 255.0187°
revolutions per day: 15.27573144
mean anomaly at epoch: 105.0570°

The dashed part of the orbit path shows where the satellite is in the earth's shadow,  

DLR